Miscellaneous Local Product
Issued by NWS Hastings, NE

Home | Current Version | Previous Version | Graphics & Text | Print | Product List | Glossary On
Versions: 1 2 3 4 5 6 7 8 9 10 11 12 13 14 15 16 17 18 19 20 21 22 23 24 25 26 27 28 29 30 31 32 33 34 35 36 37 38 39 40 41 42 43 44 45 46 47 48 49 50
000
AXUS43 KGID 051202
MISGRI

GID CWA HOURLY WEATHER ROUNDUP
NATIONAL WEATHER SERVICE HASTINGS NE
700 AM CDT TUE MAY 05 2015

NOTE: "FAIR" INDICATES FEW OR NO CLOUDS BELOW 12,000 FEET WITH NO
SIGNIFICANT WEATHER AND/OR OBSTRUCTIONS TO VISIBILITY.

...SOUTH CENTRAL NEBRASKA...

CITY           SKY/WX    TMP DP  RH WIND       PRES   REMARKS
GRAND ISLAND   FOG       55  55 100 E7        30.05R VSB 1/4
HASTINGS       CLOUDY    58  57  97 S5        30.03R FOG
KEARNEY        CLOUDY    55  54  94 E6        30.03R VSB<1/4
ORD            FOG       54  53  97 NE6       30.03F VSB 1
YORK           FOG       57  57 100 E3        30.05R VSB<1/4
AURORA         FOG       57  57 100 E6        30.05R VSB 1/4
LEXINGTON      FOG       55  54  97 NE5       30.02S VSB 1/2
HOLDREGE       FOG       55  55  97 E7        30.02R VSB 1/2
HEBRON         MOCLDY    59  57  91 SE8       30.03R

...NEBRASKA PANHANDLE...

CITY           SKY/WX    TMP DP  RH WIND       PRES   REMARKS
CHADRON        CLEAR     40  36  86 N6        30.00F
ALLIANCE       CLOUDY    48  45  89 SE8       30.02S
SCOTTSBLUFF    CLOUDY    47  45  93 SE10      30.02F
SIDNEY         CLOUDY    46  45  96 S6        30.04S FOG

...WESTERN AND NORTH CENTRAL NEBRASKA...

CITY           SKY/WX    TMP DP  RH WIND       PRES   REMARKS
VALENTINE      CLOUDY    50  42  74 E8        30.04F
AINSWORTH      CLOUDY    53  50  89 E9        30.05F FOG
ONEILL         CLOUDY    53  53  99 E7        30.07S FOG
BROKEN BOW     FOG       54  53  97 NE5       30.03S VSB 3/4
IMPERIAL       FOG       50  49  96 N5        30.02F VSB 1/2
NORTH PLATTE   CLOUDY    51  51 100 E3        30.03S FOG
MCCOOK         FOG       54  53  97 E3        30.02R VSB 1/4

...EASTERN NEBRASKA...

CITY           SKY/WX    TMP DP  RH WIND       PRES   REMARKS
NORFOLK        CLOUDY    55  54  96 E6        30.05F FOG
SO SIOUX CITY  LGT RAIN  54  51  90 E3        30.08R
TEKAMAH        LGT RAIN  58  56  93 CALM      30.07R FOG
COLUMBUS       CLOUDY    55  50  82 E8        30.06S VSB 1
ALBION         FOG       54  52  94 NE7       30.05F VSB 1
OMAHA EPPLEY   CLOUDY    60  58  92 E3        30.06S FOG
OFFUTT AFB     CLOUDY    60  59  96 E6        30.06F
MILLARD        CLOUDY    61  59  94 CALM      30.07R
LINCOLN        CLOUDY    60  59  96 E5        30.06R FOG
NEBRASKA CITY  MOCLDY    59  59 100 CALM      30.07R
BEATRICE       CLOUDY    59  58  97 SE6       30.05R
FALLS CITY     PTCLDY    58  57  97 SE3       30.07R

...NORTHERN KANSAS...

CITY           SKY/WX    TMP DP  RH WIND       PRES   REMARKS
GOODLAND       FOG       52  52 100 E7        30.00F VSB 1/4
HILL CITY      CLOUDY    59  57  93 CALM      30.01F
NORTON         CLOUDY    57  55  94 S5        30.01S FOG
PHILLIPSBURG   CLOUDY    61  61 100 E3        30.01S FOG
SMITH CENTER   CLEAR     55  55 100 E5        30.02R FOG
HAYS           CLOUDY    57  52  82 SE10      30.00F
RUSSELL        CLOUDY    59  58  96 SE13      29.99S
CONCORDIA      CLOUDY    59  57  93 SE9       30.03S
SALINA         CLOUDY    59  56  89 SE6       30.03S
TOPEKA         CLOUDY    60  59  96 CALM      30.08R



USA.gov is the U.S. government's official web portal to all federal, state and local government web resources and services.